Weather History for Chesapeake, VA

Change the Weather History Date:

Monday, March 18, 2013

  Actual Average (KORF) Record (KORF)
Temperature  
Mean Temperature 44 °F 50 °F  
Max Temperature 48 °F 59 °F 83 °F (2011)
Min Temperature 39 °F 41 °F 24 °F (1941)
Degree Days  
Heating Degree Days 22 15  
Month to date heating degree days 319  
Since 1 July heating degree days 2888  
Cooling Degree Days 0 0  
Month to date cooling degree days 0  
Year to date cooling degree days 1  
Moisture  
Dew Point 43 °F    
Average Humidity 97    
Maximum Humidity 100    
Minimum Humidity 81    
Precipitation  
Precipitation 0.04 in 0.12 in 1.26 in (1892)
Month to date precipitation 2.15  
Year to date precipitation 8.67  
Snow  
Snow 0.00 in 0.00 in 0.00 in (2002)
Month to date snowfall 0.2  
Since 1 July snowfall 5.8  
Snow Depth -    
Sea Level Pressure  
Sea Level Pressure 30.11 in    
Wind  
Wind Speed 8 mph (NNE)    
Max Wind Speed 14 mph    
Max Gust Speed 20 mph    
Visibility 3 miles    
Events Fog , Rain    
T = Trace of Precipitation, MM = Missing Value Source: NWS Daily Summary

Daily Weather History Graph

Daily Weather History Graph

Search for Another Location

Airport:

Trip Planner

Search our weather history database for the weather conditions in past years. The results will help you decide how hot, cold, wet, or windy it might be!

Date:

Astronomy

Mar. 18, 2013 Rise Set
Actual Time 7:11 AM EDT 7:15 PM EDT
Civil Twilight 6:45 AM EDT 7:41 PM EDT
Nautical Twilight 6:15 AM EDT 8:11 PM EDT
Astronomical Twilight 5:45 AM EDT 8:41 PM EDT
Moon 11:18 AM EDT (3/18) 1:04 AM EDT (3/18)
Length of Visible Light 12h 55m
Length of Day
12h 04m
Waxing Crescent, 40% of the Moon is Illuminated
Mar 18
Waxing Crescent
Mar 19
First Quarter
Mar 27
Full
Apr 3
Last Quarter
Apr 10
New

Hourly Weather History & Observations

Time (EDT) Temp. Windchill Dew Point Humidity Pressure Visibility Wind Dir Wind Speed Gust Speed Precip Events Conditions
12:15 AM 41.0 °F 35.2 °F 35.6 °F 81% 30.25 in 10.0 mi NE 9.2 mph - N/A   Overcast
12:35 AM 39.2 °F 32.5 °F 35.6 °F 87% 30.25 in 10.0 mi NE 10.4 mph - N/A   Drizzle
12:55 AM 39.2 °F 35.0 °F 35.6 °F 87% 30.25 in 10.0 mi NNE 5.8 mph - N/A Rain Light Rain
1:15 AM 39.2 °F 35.9 °F 35.6 °F 87% 30.26 in 7.0 mi NNE 4.6 mph - N/A   Drizzle
1:35 AM 39.2 °F 35.0 °F 35.6 °F 87% 30.25 in 7.0 mi NNE 5.8 mph - 0.01 in Rain Rain
1:55 AM 39.2 °F 35.0 °F 37.4 °F 93% 30.24 in 7.0 mi NNE 5.8 mph - N/A   Light Drizzle
2:15 AM 39.2 °F 34.2 °F 37.4 °F 93% 30.24 in 4.0 mi NNE 6.9 mph - N/A Rain Light Rain
2:35 AM 39.2 °F 33.0 °F 37.4 °F 93% 30.23 in 3.0 mi NE 9.2 mph - N/A   Overcast
2:55 AM 39.2 °F 32.5 °F 37.4 °F 93% 30.22 in 4.0 mi ENE 10.4 mph - N/A Rain Light Rain
3:15 AM 39.2 °F 32.5 °F 37.4 °F 93% 30.21 in 4.0 mi NE 10.4 mph - N/A Rain Light Rain
3:35 AM 39.2 °F 31.2 °F 37.4 °F 93% 30.21 in 5.0 mi NE 13.8 mph 18.4 mph N/A   Overcast
3:55 AM 39.2 °F 32.0 °F 37.4 °F 93% 30.21 in 10.0 mi NE 11.5 mph - N/A   Overcast
4:15 AM 39.2 °F 32.0 °F 37.4 °F 93% 30.21 in 10.0 mi NE 11.5 mph - N/A   Overcast
4:35 AM 39.2 °F 32.0 °F 37.4 °F 93% 30.20 in 7.0 mi NE 11.5 mph - N/A   Overcast
4:55 AM 39.2 °F 32.5 °F 37.4 °F 93% 30.20 in 7.0 mi NE 10.4 mph 19.6 mph N/A   Overcast
5:15 AM 39.2 °F 32.5 °F 37.4 °F 93% 30.20 in 5.0 mi NE 10.4 mph - N/A   Overcast
5:35 AM 39.2 °F 33.0 °F 37.4 °F 93% 30.21 in 3.0 mi NE 9.2 mph - N/A Rain Light Rain
5:55 AM 39.2 °F 32.5 °F 37.4 °F 93% 30.21 in 3.0 mi NE 10.4 mph - N/A Rain Light Rain
6:15 AM 39.2 °F 31.6 °F 39.2 °F 100% 30.21 in 3.0 mi NE 12.7 mph - 0.01 in Rain Light Rain
6:35 AM 39.2 °F 31.6 °F 39.2 °F 100% 30.22 in 3.0 mi NE 12.7 mph 17.3 mph 0.01 in Rain Light Rain
6:55 AM 39.2 °F 32.0 °F 39.2 °F 100% 30.22 in 4.0 mi NE 11.5 mph - N/A Rain Light Rain
7:15 AM 39.2 °F 32.5 °F 39.2 °F 100% 30.23 in 4.0 mi NE 10.4 mph - N/A Rain Light Rain
7:35 AM 39.2 °F 32.5 °F 39.2 °F 100% 30.23 in 3.0 mi NE 10.4 mph - N/A   Drizzle
7:55 AM 39.2 °F 32.5 °F 39.2 °F 100% 30.24 in 4.0 mi NE 10.4 mph - N/A Rain Light Rain
8:15 AM 39.2 °F 32.0 °F 39.2 °F 100% 30.23 in 4.0 mi NE 11.5 mph - 0.01 in   Light Drizzle
8:35 AM 41.0 °F 34.7 °F 39.2 °F 93% 30.24 in 3.0 mi NE 10.4 mph - 0.01 in Rain Light Rain
8:55 AM 41.0 °F 34.7 °F 39.2 °F 93% 30.24 in 3.0 mi NNE 10.4 mph - N/A Rain Light Rain
9:15 AM 41.0 °F 34.7 °F 39.2 °F 93% 30.23 in 2.5 mi NE 10.4 mph - N/A Rain Light Rain
9:35 AM 41.0 °F 35.8 °F 41.0 °F 100% 30.23 in 3.0 mi NNE 8.1 mph - N/A   Light Drizzle
9:55 AM 42.8 °F 37.5 °F 41.0 °F 93% 30.22 in 2.5 mi NNE 9.2 mph - N/A   Light Drizzle
10:15 AM 42.8 °F 36.6 °F 42.8 °F 100% 30.21 in 2.5 mi NE 11.5 mph - 0.01 in Rain Light Rain
10:35 AM 42.8 °F 37.0 °F 42.8 °F 100% 30.21 in 2.5 mi NE 10.4 mph - 0.01 in   Light Drizzle
10:55 AM 42.8 °F 37.0 °F 42.8 °F 100% 30.19 in 2.5 mi ENE 10.4 mph 18.4 mph N/A   Overcast
11:15 AM 44.6 °F 38.8 °F 42.8 °F 93% 30.18 in 3.0 mi NE 11.5 mph - N/A   Overcast
11:35 AM 44.6 °F 38.8 °F 44.6 °F 100% 30.17 in 3.0 mi NE 11.5 mph - N/A   Overcast
11:55 AM 44.6 °F 39.2 °F 44.6 °F 100% 30.14 in 4.0 mi ENE 10.4 mph 17.3 mph N/A   Overcast
12:15 PM 44.6 °F 39.7 °F 44.6 °F 100% 30.15 in 2.5 mi ENE 9.2 mph - N/A   Overcast
12:35 PM 44.6 °F 38.8 °F 44.6 °F 100% 30.14 in 1.8 mi ENE 11.5 mph - N/A   Overcast
12:55 PM 46.4 °F 41.5 °F 44.6 °F 93% 30.13 in 1.8 mi ENE 10.4 mph - N/A   Overcast
1:15 PM 46.4 °F 41.5 °F 44.6 °F 93% 30.11 in 2.5 mi ENE 10.4 mph - N/A   Overcast
1:35 PM 46.4 °F 41.5 °F 46.4 °F 100% 30.10 in 4.0 mi NE 10.4 mph - N/A   Overcast
1:55 PM 46.4 °F 41.5 °F 46.4 °F 100% 30.09 in 3.0 mi NE 10.4 mph - N/A   Overcast
2:15 PM 46.4 °F 41.5 °F 46.4 °F 100% 30.08 in 4.0 mi NE 10.4 mph - N/A   Overcast
2:35 PM 46.4 °F 43.5 °F 46.4 °F 100% 30.06 in 3.0 mi NE 5.8 mph - N/A   Overcast
2:55 PM 48.2 °F - 46.4 °F 93% 30.05 in 4.0 mi NE 6.9 mph - N/A   Overcast
3:15 PM 48.2 °F - 46.4 °F 93% 30.05 in 3.0 mi North 3.5 mph - N/A   Overcast
3:35 PM 48.2 °F - 46.4 °F 93% 30.04 in 4.0 mi Calm Calm - N/A   Overcast
3:55 PM 48.2 °F - 48.2 °F 100% 30.03 in 4.0 mi NNE 3.5 mph - N/A   Overcast
4:15 PM 48.2 °F - 48.2 °F 100% 30.02 in 4.0 mi NNW 4.6 mph - N/A   Overcast
4:35 PM 48.2 °F - 48.2 °F 100% 30.01 in 3.0 mi Calm Calm - N/A   Overcast
4:55 PM 48.2 °F - 48.2 °F 100% 30.00 in 2.0 mi NNE 3.5 mph - N/A   Overcast
5:15 PM 48.2 °F - 48.2 °F 100% 29.99 in 2.5 mi Calm Calm - N/A   Overcast
5:35 PM 48.2 °F - 48.2 °F 100% 29.99 in 2.5 mi Calm Calm - N/A   Overcast
5:55 PM 48.2 °F - 48.2 °F 100% 29.98 in 1.8 mi Calm Calm - N/A   Overcast
6:15 PM 48.2 °F - 48.2 °F 100% 29.97 in 1.2 mi Calm Calm - N/A   Overcast
6:35 PM 48.2 °F - 48.2 °F 100% 29.97 in 1.5 mi West 3.5 mph - N/A   Overcast
6:55 PM 48.2 °F - 48.2 °F 100% 29.98 in 3.0 mi Calm Calm - N/A   Overcast
7:15 PM 48.2 °F - 48.2 °F 100% 29.96 in 1.8 mi Calm Calm - N/A   Overcast
7:35 PM 48.2 °F - 48.2 °F 100% 29.97 in 1.2 mi West 3.5 mph - N/A   Overcast
7:55 PM 48.2 °F - 48.2 °F 100% 29.97 in 0.8 mi West 3.5 mph - N/A   Overcast
8:15 PM 48.2 °F - 46.4 °F 93% 29.96 in 0.5 mi NW 4.6 mph - N/A Fog Fog
8:35 PM 48.2 °F - 46.4 °F 93% 29.97 in 0.5 mi WNW 4.6 mph - N/A Fog Fog
8:55 PM 46.4 °F 45.2 °F 46.4 °F 100% 29.97 in 0.5 mi West 3.5 mph - N/A Fog Fog
9:15 PM 46.4 °F 45.2 °F 46.4 °F 100% 29.96 in 0.8 mi West 3.5 mph - N/A   Overcast
9:35 PM 46.4 °F 43.5 °F 46.4 °F 100% 29.96 in 0.8 mi West 5.8 mph - N/A   Overcast
9:55 PM 46.4 °F - 46.4 °F 100% 29.95 in 1.0 mi Calm Calm - N/A   Overcast
10:15 PM 46.4 °F - 46.4 °F 100% 29.95 in 0.8 mi Calm Calm - N/A   Overcast
10:35 PM 46.4 °F - 46.4 °F 100% 29.94 in 0.8 mi Calm Calm - N/A   Overcast
10:55 PM 46.4 °F - 46.4 °F 100% 29.94 in 0.8 mi Calm Calm - N/A   Overcast
11:15 PM 46.4 °F - 46.4 °F 100% 29.93 in 1.2 mi Calm Calm - N/A   Overcast
11:55 PM 46.4 °F - 46.4 °F 100% 29.89 in 1.5 mi Calm Calm - N/A   Overcast